Zurück zum Katalog

COSMOS 2251 DEB

AktivLEO
NORAD 35890·DEBRIS·🇷🇺 Russia

Gestartet Jun 16, 1993 von Plesetsk Cosmodrome

Loading…

Nächste Überflüge (nächste 24 Stunden)

TLE

AktuellSource: Space-Track

Epoche: Sep 14, 2026, 04:16 UTC

1 35890U 93036AUD 26257.17810910  .00004672  00000-0  94066-3 0  9992
2 35890  73.9334  74.2679 0053695 137.8640 222.6673 14.60912286691696

Verfolge COSMOS 2251 DEB in Echtzeit mit AllMySat

Download on the App Store